Погода в Диксоне

Россия / Красноярский край     73°30′26″N   80°31′44″E
темп.,
°C
ветер,
м/с
пор.,
м/с
влажн.,
%
обл.,
%
осадки,
мм/ч
давл.,
гПа
погр.,
м
16 мая, вс
вс1601:00−5сз5777100 0.6 1011433
04:00−5сз5773100 0.1 1012371
07:00−4зсз6875100 0.2 1012495
10:00−4зсз777596 0.1 1012973
13:00−4зсз8873100 0.2 10131053
16:00−3зсз7874100 0.1 10131070
19:00−3зсз6876100 0.3 1014963
22:00−3зсз6878100 0.2 1013386
17 мая, пн
пн1701:00−3зсз6987100 0.4 1014330
04:00−3зсз688599 0.4 1014318
07:00−2зсз5684100 0.9 1015350
10:00−2сз4579100 0.5 1015720
13:00−2зсз447867 0.8 1016681
16:00−2зсз447974 0.1 1017639
19:00−2зсз447944 0.1 1018597
22:00−5зсз34865 0.0 1019164
18 мая, вт
вт1801:00−7з239395 0.1 1019156
04:00−5юз2391100 0.4 1020103
07:00−4ссз239059 0.8 1020147
10:00−2ссз458350 0.0 1021459
13:00−2ссз448357 0.0 1022540
16:00−2сз4480100 0.0 1023597
19:00−1сз558299 0.2 1024614
22:00−2сз468783 0.1 1024237
19 мая, ср
ср1901:00−3сз4595100 0.3 1024166
04:00−3ссз459387 0.1 1024159
07:00−3ссз459586 0.3 1025340
10:00−2сз448558 0.1 1025513
13:00−2сз44785 0.1 1026496
16:00−2сз34735 0.0 1026486
19:00−2зсз227699 0.0 1026456
22:00−5ю228788 0.0 102492
20 мая, чт
чт2001:00−9ююв349681 0.0 102442
04:00−10ююв349958 0.0 102243
07:00−9ююв339431 0.0 102250
10:00−5юв22865 0.0 1021107
13:00−3юв22765 0.0 1020326
16:00−2юв22725 0.0 1020459
19:00−2юв22755 0.0 1020455
22:00−7вюв229229 0.0 102043